Time,TemperatureF,DewpointF,PressureIn,WindDirection,WindDirectionDegrees,WindSpeedMPH,WindSpeedGustMPH,Humidity,HourlyPrecipIn,Conditions,Clouds,dailyrainin,SolarRadiationWatts/m^2,SoftwareType,DateUTC
2013-08-24 00:02:00,67.9,61.1,30.11,East,86,0.0,0.0,79,0.00,CLR,,0.00,0.0,WeatherDisplay:10.37,2013-08-24 05:02:00,
2013-08-24 00:07:00,67.7,61.0,30.11,East,86,0.0,0.0,79,0.00,CLR,,0.00,0.0,WeatherDisplay:10.37,2013-08-24 05:07:00,
2013-08-24 00:12:00,67.6,60.9,30.11,East,86,0.0,0.0,79,0.00,CLR,,0.00,0.0,WeatherDisplay:10.37,2013-08-24 05:12:00,
2013-08-24 00:17:00,67.5,61.1,30.11,East,86,0.0,0.0,80,0.00,CLR,,0.00,0.0,WeatherDisplay:10.37,2013-08-24 05:17:00,
2013-08-24 00:22:00,67.3,60.9,30.12,East,86,0.0,0.0,80,0.00,CLR,,0.00,0.0,WeatherDisplay:10.37,2013-08-24 05:22:00,
2013-08-24 00:27:00,67.2,60.8,30.12,East,86,0.0,0.0,80,0.00,CLR,,0.00,0.0,WeatherDisplay:10.37,2013-08-24 05:27:00,
2013-08-24 00:32:00,67.0,60.6,30.12,East,86,0.0,0.0,80,0.00,CLR,,0.00,0.0,WeatherDisplay:10.37,2013-08-24 05:32:00,
2013-08-24 00:37:00,66.8,60.8,30.12,East,86,0.0,0.0,81,0.00,CLR,,0.00,0.0,WeatherDisplay:10.37,2013-08-24 05:37:00,
2013-08-24 00:42:00,66.7,60.7,30.12,East,86,0.0,0.0,81,0.00,CLR,,0.00,0.0,WeatherDisplay:10.37,2013-08-24 05:42:00,
2013-08-24 00:47:00,66.5,60.8,30.12,East,86,0.0,0.0,82,0.00,CLR,,0.00,0.0,WeatherDisplay:10.37,2013-08-24 05:47:00,
2013-08-24 00:52:00,66.3,60.6,30.12,East,86,0.0,0.0,82,0.00,CLR,,0.00,0.0,WeatherDisplay:10.37,2013-08-24 05:52:00,
2013-08-24 00:57:00,66.2,60.5,30.12,East,86,0.0,0.0,82,0.00,CLR,,0.00,0.0,WeatherDisplay:10.37,2013-08-24 05:57:00,
2013-08-24 01:02:00,66.0,60.3,30.12,East,86,0.0,0.0,82,0.00,CLR,,0.00,0.0,WeatherDisplay:10.37,2013-08-24 06:02:00,
2013-08-24 01:07:00,65.9,60.2,30.12,East,86,0.0,0.0,82,0.00,CLR,,0.00,0.0,WeatherDisplay:10.37,2013-08-24 06:07:00,
2013-08-24 01:12:00,65.7,60.1,30.13,East,86,0.0,0.0,82,0.00,CLR,,0.00,0.0,WeatherDisplay:10.37,2013-08-24 06:12:00,
2013-08-24 01:17:00,65.6,60.0,30.12,East,86,0.0,0.0,82,0.00,CLR,,0.00,0.0,WeatherDisplay:10.37,2013-08-24 06:17:00,
2013-08-24 01:22:00,65.5,59.9,30.12,East,86,0.0,0.0,82,0.00,CLR,,0.00,0.0,WeatherDisplay:10.37,2013-08-24 06:22:00,
2013-08-24 01:27:00,65.3,60.0,30.12,East,86,0.0,0.0,83,0.00,CLR,,0.00,0.0,WeatherDisplay:10.37,2013-08-24 06:27:00,
2013-08-24 01:32:00,65.2,60.2,30.12,East,86,0.0,0.0,84,0.00,CLR,,0.00,0.0,WeatherDisplay:10.37,2013-08-24 06:32:00,
2013-08-24 01:37:00,65.0,60.0,30.12,East,86,0.0,0.0,84,0.00,CLR,,0.00,0.0,WeatherDisplay:10.37,2013-08-24 06:37:00,
2013-08-24 01:42:00,64.9,59.9,30.12,East,86,0.0,0.0,84,0.00,CLR,,0.00,0.0,WeatherDisplay:10.37,2013-08-24 06:42:00,
2013-08-24 01:47:00,64.8,59.9,30.12,East,86,0.0,0.0,84,0.00,CLR,,0.00,0.0,WeatherDisplay:10.37,2013-08-24 06:47:00,
2013-08-24 01:52:00,64.6,60.0,30.13,East,86,0.0,0.0,85,0.00,CLR,,0.00,0.0,WeatherDisplay:10.37,2013-08-24 06:52:00,
2013-08-24 01:57:00,64.4,59.8,30.13,East,86,0.0,0.0,85,0.00,CLR,,0.00,0.0,WeatherDisplay:10.37,2013-08-24 06:57:00,
2013-08-24 02:02:00,64.3,59.7,30.12,East,86,0.0,0.0,85,0.00,CLR,,0.00,0.0,WeatherDisplay:10.37,2013-08-24 07:02:00,
2013-08-24 02:07:00,64.1,59.5,30.12,East,86,0.0,0.0,85,0.00,CLR,,0.00,0.0,WeatherDisplay:10.37,2013-08-24 07:07:00,
2013-08-24 02:12:00,63.9,59.3,30.13,East,86,0.0,0.0,85,0.00,CLR,,0.00,0.0,WeatherDisplay:10.37,2013-08-24 07:12:00,
2013-08-24 02:17:00,63.7,59.1,30.13,East,86,0.0,0.0,85,0.00,CLR,,0.00,0.0,WeatherDisplay:10.37,2013-08-24 07:17:00,
2013-08-24 02:22:00,63.5,58.6,30.13,East,86,0.0,0.0,84,0.00,CLR,,0.00,0.0,WeatherDisplay:10.37,2013-08-24 07:22:00,
2013-08-24 02:27:00,63.3,58.4,30.13,East,86,0.0,0.0,84,0.00,CLR,,0.00,0.0,WeatherDisplay:10.37,2013-08-24 07:27:00,
2013-08-24 02:32:00,63.3,58.7,30.13,East,86,0.0,0.0,85,0.00,CLR,,0.00,0.0,WeatherDisplay:10.37,2013-08-24 07:32:00,
2013-08-24 02:37:00,63.2,58.6,30.13,East,86,0.0,0.0,85,0.00,CLR,,0.00,0.0,WeatherDisplay:10.37,2013-08-24 07:37:00,
2013-08-24 02:42:00,63.1,58.5,30.13,East,86,0.0,0.0,85,0.00,CLR,,0.00,0.0,WeatherDisplay:10.37,2013-08-24 07:42:00,
2013-08-24 02:47:00,63.1,58.2,30.13,East,86,0.0,0.0,84,0.00,CLR,,0.00,0.0,WeatherDisplay:10.37,2013-08-24 07:47:00,
2013-08-24 02:52:00,63.1,58.2,30.13,East,86,0.0,0.0,84,0.00,CLR,,0.00,0.0,WeatherDisplay:10.37,2013-08-24 07:52:00,
2013-08-24 02:57:00,63.1,58.2,30.13,East,86,0.0,0.0,84,0.00,CLR,,0.00,0.0,WeatherDisplay:10.37,2013-08-24 07:57:00,
2013-08-24 03:02:00,63.0,58.1,30.14,East,86,0.0,0.0,84,0.00,CLR,,0.00,0.0,WeatherDisplay:10.37,2013-08-24 08:02:00,
2013-08-24 03:07:00,63.0,58.1,30.14,East,86,0.0,0.0,84,0.00,CLR,,0.00,0.0,WeatherDisplay:10.37,2013-08-24 08:07:00,
2013-08-24 03:12:00,62.9,58.0,30.14,East,86,0.0,0.0,84,0.00,CLR,,0.00,0.0,WeatherDisplay:10.37,2013-08-24 08:12:00,
2013-08-24 03:17:00,62.9,58.0,30.14,East,86,0.0,0.0,84,0.00,CLR,,0.00,0.0,WeatherDisplay:10.37,2013-08-24 08:17:00,
2013-08-24 03:22:00,62.9,58.0,30.14,East,86,0.0,0.0,84,0.00,CLR,,0.00,0.0,WeatherDisplay:10.37,2013-08-24 08:22:00,
2013-08-24 03:27:00,62.8,57.9,30.14,East,86,0.0,0.0,84,0.00,CLR,,0.00,0.0,WeatherDisplay:10.37,2013-08-24 08:27:00,
2013-08-24 03:32:00,62.8,57.9,30.14,East,86,0.0,0.0,84,0.00,CLR,,0.00,0.0,WeatherDisplay:10.37,2013-08-24 08:32:00,
2013-08-24 03:37:00,62.8,57.9,30.14,East,86,0.0,0.0,84,0.00,CLR,,0.00,0.0,WeatherDisplay:10.37,2013-08-24 08:37:00,
2013-08-24 03:42:00,62.8,57.9,30.14,East,86,0.0,0.0,84,0.00,CLR,,0.00,0.0,WeatherDisplay:10.37,2013-08-24 08:42:00,
2013-08-24 03:47:00,62.7,57.8,30.14,East,86,0.0,0.0,84,0.00,CLR,,0.00,0.0,WeatherDisplay:10.37,2013-08-24 08:47:00,
2013-08-24 03:52:00,62.7,57.8,30.14,East,86,0.0,0.0,84,0.00,CLR,,0.00,0.0,WeatherDisplay:10.37,2013-08-24 08:52:00,
2013-08-24 03:57:00,62.7,57.8,30.14,East,86,0.0,0.0,84,0.00,CLR,,0.00,0.0,WeatherDisplay:10.37,2013-08-24 08:57:00,
2013-08-24 04:02:00,62.7,57.8,30.14,East,86,0.0,0.0,84,0.00,CLR,,0.00,0.0,WeatherDisplay:10.37,2013-08-24 09:02:00,
2013-08-24 04:07:00,62.6,57.7,30.14,East,86,0.0,0.0,84,0.00,CLR,,0.00,0.0,WeatherDisplay:10.37,2013-08-24 09:07:00,
2013-08-24 04:12:00,62.6,57.7,30.14,East,86,0.0,0.0,84,0.00,CLR,,0.00,0.0,WeatherDisplay:10.37,2013-08-24 09:12:00,
2013-08-24 04:17:00,62.5,57.6,30.14,East,86,0.0,0.0,84,0.00,CLR,,0.00,0.0,WeatherDisplay:10.37,2013-08-24 09:17:00,
2013-08-24 04:23:00,62.5,57.6,30.15,East,86,0.0,0.0,84,0.00,CLR,,0.00,0.0,WeatherDisplay:10.37,2013-08-24 09:23:00,
2013-08-24 04:28:00,62.4,57.5,30.15,East,86,0.0,0.0,84,0.00,CLR,,0.00,0.0,WeatherDisplay:10.37,2013-08-24 09:28:00,
2013-08-24 04:33:00,62.3,57.4,30.15,East,86,0.0,0.0,84,0.00,CLR,,0.00,0.0,WeatherDisplay:10.37,2013-08-24 09:33:00,
2013-08-24 04:38:00,62.3,57.7,30.15,East,86,0.0,0.0,85,0.00,CLR,,0.00,0.0,WeatherDisplay:10.37,2013-08-24 09:38:00,
2013-08-24 04:43:00,62.2,57.6,30.15,East,86,0.0,0.0,85,0.00,CLR,,0.00,0.0,WeatherDisplay:10.37,2013-08-24 09:43:00,
2013-08-24 04:48:00,62.2,57.6,30.15,East,86,0.0,0.0,85,0.00,CLR,,0.00,0.0,WeatherDisplay:10.37,2013-08-24 09:48:00,
2013-08-24 04:53:00,62.1,57.5,30.16,East,86,0.0,0.0,85,0.00,CLR,,0.00,0.0,WeatherDisplay:10.37,2013-08-24 09:53:00,
2013-08-24 04:58:00,62.0,57.4,30.15,East,86,0.0,0.0,85,0.00,CLR,,0.00,0.0,WeatherDisplay:10.37,2013-08-24 09:58:00,
2013-08-24 05:03:00,62.0,57.4,30.15,East,86,0.0,0.0,85,0.00,CLR,,0.00,0.0,WeatherDisplay:10.37,2013-08-24 10:03:00,
2013-08-24 05:08:00,61.9,57.7,30.15,East,86,0.0,0.0,86,0.00,CLR,,0.00,0.0,WeatherDisplay:10.37,2013-08-24 10:08:00,
2013-08-24 05:13:00,61.9,57.7,30.16,East,86,0.0,0.0,86,0.00,CLR,,0.00,0.0,WeatherDisplay:10.37,2013-08-24 10:13:00,
2013-08-24 05:18:00,61.8,57.6,30.16,East,86,0.0,0.0,86,0.00,CLR,,0.00,0.0,WeatherDisplay:10.37,2013-08-24 10:18:00,
2013-08-24 05:23:00,61.7,57.5,30.16,East,86,0.0,0.0,86,0.00,CLR,,0.00,0.0,WeatherDisplay:10.37,2013-08-24 10:23:00,
2013-08-24 05:28:00,61.7,57.5,30.16,East,86,0.0,0.0,86,0.00,CLR,,0.00,0.0,WeatherDisplay:10.37,2013-08-24 10:28:00,
2013-08-24 05:33:00,61.7,57.5,30.16,East,86,0.0,0.0,86,0.00,CLR,,0.00,0.0,WeatherDisplay:10.37,2013-08-24 10:33:00,
2013-08-24 05:38:00,61.6,57.4,30.16,East,86,0.0,0.0,86,0.00,CLR,,0.00,0.0,WeatherDisplay:10.37,2013-08-24 10:38:00,
2013-08-24 05:43:00,61.6,57.4,30.16,East,86,0.0,0.0,86,0.00,CLR,,0.00,0.0,WeatherDisplay:10.37,2013-08-24 10:43:00,
2013-08-24 05:48:00,61.5,57.3,30.16,East,86,0.0,0.0,86,0.00,CLR,,0.00,0.0,WeatherDisplay:10.37,2013-08-24 10:48:00,
2013-08-24 05:53:00,61.4,57.5,30.17,East,86,0.0,0.0,87,0.00,CLR,,0.00,0.0,WeatherDisplay:10.37,2013-08-24 10:53:00,
2013-08-24 05:58:00,61.4,57.5,30.17,East,86,0.0,0.0,87,0.00,CLR,,0.00,0.0,WeatherDisplay:10.37,2013-08-24 10:58:00,
2013-08-24 06:03:00,61.3,57.4,30.16,East,86,0.0,0.0,87,0.00,CLR,,0.00,0.0,WeatherDisplay:10.37,2013-08-24 11:03:00,
2013-08-24 06:08:00,61.3,57.4,30.17,East,86,0.0,0.0,87,0.00,CLR,,0.00,0.0,WeatherDisplay:10.37,2013-08-24 11:08:00,
2013-08-24 06:13:00,61.2,57.6,30.17,East,86,0.0,0.0,88,0.00,CLR,,0.00,0.0,WeatherDisplay:10.37,2013-08-24 11:13:00,
2013-08-24 06:18:00,61.2,57.6,30.17,East,86,0.0,0.0,88,0.00,OVC,,0.00,0.0,WeatherDisplay:10.37,2013-08-24 11:18:00,
2013-08-24 06:23:00,61.2,57.6,30.17,East,86,0.0,0.0,88,0.00,BKN,,0.00,5.0,WeatherDisplay:10.37,2013-08-24 11:23:00,
2013-08-24 06:28:00,61.1,57.5,30.17,East,86,0.0,0.0,88,0.00,BKN,,0.00,9.0,WeatherDisplay:10.37,2013-08-24 11:28:00,
2013-08-24 06:33:00,61.1,57.5,30.17,East,86,0.0,0.0,88,0.00,BKN,,0.00,14.0,WeatherDisplay:10.37,2013-08-24 11:33:00,
2013-08-24 06:38:00,61.0,57.7,30.17,East,86,0.0,0.0,89,0.00,BKN,,0.00,25.0,WeatherDisplay:10.37,2013-08-24 11:38:00,
2013-08-24 06:43:00,61.0,57.7,30.18,East,86,0.0,0.0,89,0.00,BKN,,0.00,35.0,WeatherDisplay:10.37,2013-08-24 11:43:00,
2013-08-24 06:48:00,61.0,57.7,30.18,East,86,0.0,0.0,89,0.00,BKN,,0.00,47.0,WeatherDisplay:10.37,2013-08-24 11:48:00,
2013-08-24 06:53:00,61.1,57.8,30.18,East,86,0.0,0.0,89,0.00,BKN,,0.00,56.0,WeatherDisplay:10.37,2013-08-24 11:53:00,
2013-08-24 06:58:00,61.2,58.2,30.18,East,86,0.0,0.0,90,0.00,BKN,,0.00,67.0,WeatherDisplay:10.37,2013-08-24 11:58:00,
2013-08-24 07:03:00,61.3,58.0,30.18,East,84,0.0,0.0,89,0.00,BKN,,0.00,79.0,WeatherDisplay:10.37,2013-08-24 12:03:00,
2013-08-24 07:08:00,61.4,58.1,30.18,East,83,0.0,0.1,89,0.00,BKN,,0.00,93.0,WeatherDisplay:10.37,2013-08-24 12:08:00,
2013-08-24 07:13:00,61.6,58.3,30.19,East,82,0.0,0.3,89,0.00,BKN,,0.00,107.0,WeatherDisplay:10.37,2013-08-24 12:13:00,
2013-08-24 07:18:00,61.7,58.4,30.18,East,82,2.0,0.0,89,0.00,SCT,,0.00,121.0,WeatherDisplay:10.37,2013-08-24 12:18:00,
2013-08-24 07:23:00,62.0,58.7,30.19,East,84,0.0,0.0,89,0.00,SCT,,0.00,132.0,WeatherDisplay:10.37,2013-08-24 12:23:00,
2013-08-24 07:28:00,62.2,58.9,30.19,East,84,0.0,0.0,89,0.00,SCT,,0.00,149.0,WeatherDisplay:10.37,2013-08-24 12:28:00,
2013-08-24 07:33:00,62.5,59.2,30.19,East,83,0.0,0.0,89,0.00,SCT,,0.00,163.0,WeatherDisplay:10.37,2013-08-24 12:33:00,
2013-08-24 07:38:00,62.7,59.1,30.19,East,83,0.0,0.0,88,0.00,SCT,,0.00,160.0,WeatherDisplay:10.37,2013-08-24 12:38:00,
2013-08-24 07:43:00,63.0,59.4,30.19,East,84,0.0,0.0,88,0.00,SCT,,0.00,156.0,WeatherDisplay:10.37,2013-08-24 12:43:00,
2013-08-24 07:48:00,63.4,59.8,30.19,East,84,0.0,0.0,88,0.00,BKN,,0.00,197.0,WeatherDisplay:10.37,2013-08-24 12:48:00,
2013-08-24 07:53:00,63.8,59.9,30.19,East,84,0.0,0.0,87,0.00,SCT,,0.00,227.0,WeatherDisplay:10.37,2013-08-24 12:53:00,
2013-08-24 07:58:00,64.3,60.0,30.19,East,83,0.0,0.0,86,0.00,SCT,,0.00,239.0,WeatherDisplay:10.37,2013-08-24 12:58:00,
2013-08-24 08:03:00,64.7,60.4,30.19,East,84,0.0,0.0,86,0.00,BKN,,0.00,72.0,WeatherDisplay:10.37,2013-08-24 13:03:00,
2013-08-24 08:08:00,65.0,60.4,30.20,East,84,0.0,0.0,85,0.00,BKN,,0.00,74.0,WeatherDisplay:10.37,2013-08-24 13:08:00,
2013-08-24 08:13:00,65.3,60.7,30.20,East,84,0.0,0.0,85,0.00,BKN,,0.00,77.0,WeatherDisplay:10.37,2013-08-24 13:13:00,
2013-08-24 08:18:00,65.6,61.0,30.20,East,84,0.0,0.0,85,0.00,BKN,,0.00,79.0,WeatherDisplay:10.37,2013-08-24 13:18:00,
2013-08-24 08:23:00,65.9,61.3,30.20,East,83,2.3,0.0,85,0.00,BKN,,0.00,95.0,WeatherDisplay:10.37,2013-08-24 13:23:00,
2013-08-24 08:28:00,66.1,61.5,30.20,East,84,0.0,0.0,85,0.00,BKN,,0.00,330.0,WeatherDisplay:10.37,2013-08-24 13:28:00,
2013-08-24 08:33:00,66.5,61.8,30.20,East,83,0.0,0.0,85,0.00,BKN,,0.00,311.0,WeatherDisplay:10.37,2013-08-24 13:33:00,
2013-08-24 08:38:00,66.8,62.1,30.20,East,84,0.0,0.0,85,0.00,SCT,,0.00,278.0,WeatherDisplay:10.37,2013-08-24 13:38:00,
2013-08-24 08:43:00,67.3,62.6,30.20,East,84,0.0,0.0,85,0.00,SCT,,0.00,257.0,WeatherDisplay:10.37,2013-08-24 13:43:00,
2013-08-24 08:48:00,67.6,62.9,30.20,East,84,0.0,0.0,85,0.00,SCT,,0.00,343.0,WeatherDisplay:10.37,2013-08-24 13:48:00,
2013-08-24 08:53:00,67.9,63.2,30.20,East,83,0.0,0.0,85,0.00,BKN,,0.00,283.0,WeatherDisplay:10.37,2013-08-24 13:53:00,
2013-08-24 08:58:00,68.3,63.6,30.20,East,91,0.0,0.0,85,0.00,BKN,,0.00,97.0,WeatherDisplay:10.37,2013-08-24 13:58:00,
2013-08-24 09:03:00,68.7,64.0,30.20,East,91,0.0,0.0,85,0.00,BKN,,0.00,160.0,WeatherDisplay:10.37,2013-08-24 14:03:00,
2013-08-24 09:08:00,69.2,64.5,30.20,SE,144,0.0,0.0,85,0.00,BKN,,0.00,109.0,WeatherDisplay:10.37,2013-08-24 14:08:00,
2013-08-24 09:13:00,69.6,64.9,30.19,SE,140,0.0,0.0,85,0.00,BKN,,0.00,105.0,WeatherDisplay:10.37,2013-08-24 14:13:00,
2013-08-24 09:18:00,70.1,65.4,30.19,SE,140,0.0,0.0,85,0.00,BKN,,0.00,482.0,WeatherDisplay:10.37,2013-08-24 14:18:00,
2013-08-24 09:23:00,70.6,65.5,30.19,SE,140,0.0,0.0,84,0.00,BKN,,0.00,494.0,WeatherDisplay:10.37,2013-08-24 14:23:00,
2013-08-24 09:28:00,71.1,66.0,30.19,SE,140,0.0,0.0,84,0.00,SCT,,0.00,508.0,WeatherDisplay:10.37,2013-08-24 14:28:00,
2013-08-24 09:33:00,71.7,66.3,30.19,SE,142,3.5,0.0,83,0.00,SCT,,0.00,522.0,WeatherDisplay:10.37,2013-08-24 14:33:00,
2013-08-24 09:38:00,72.4,66.9,30.19,SE,140,0.0,0.0,83,0.00,SCT,,0.00,540.0,WeatherDisplay:10.37,2013-08-24 14:38:00,
2013-08-24 09:43:00,73.1,66.9,30.19,SSE,151,0.0,0.0,81,0.00,FEW,,0.00,554.0,WeatherDisplay:10.37,2013-08-24 14:43:00,
2013-08-24 09:48:00,73.7,67.5,30.19,ESE,123,0.0,0.0,81,0.00,FEW,,0.00,568.0,WeatherDisplay:10.37,2013-08-24 14:48:00,
2013-08-24 09:53:00,74.5,67.9,30.19,ESE,123,0.0,0.0,80,0.00,FEW,,0.00,584.0,WeatherDisplay:10.37,2013-08-24 14:53:00,
2013-08-24 09:58:00,75.2,67.9,30.19,SSE,164,0.0,1.8,78,0.00,SCT,,0.00,304.0,WeatherDisplay:10.37,2013-08-24 14:58:00,
2013-08-24 10:03:00,75.9,67.8,30.18,SSE,165,3.5,3.5,76,0.00,SCT,,0.00,236.0,WeatherDisplay:10.37,2013-08-24 15:03:00,
2013-08-24 10:09:00,76.5,68.0,30.18,SSE,164,0.0,0.0,75,0.00,BKN,,0.00,596.0,WeatherDisplay:10.37,2013-08-24 15:09:00,
2013-08-24 10:14:00,76.9,68.0,30.18,SSE,164,1.2,0.0,74,0.00,BKN,,0.00,629.0,WeatherDisplay:10.37,2013-08-24 15:14:00,
2013-08-24 10:19:00,77.5,68.6,30.18,SSE,164,1.2,1.4,74,0.00,SCT,,0.00,643.0,WeatherDisplay:10.37,2013-08-24 15:19:00,
2013-08-24 10:24:00,78.0,68.6,30.18,SSE,163,8.1,8.1,73,0.00,FEW,,0.00,661.0,WeatherDisplay:10.37,2013-08-24 15:24:00,
2013-08-24 10:29:00,78.4,68.6,30.18,SE,146,1.2,1.2,72,0.00,FEW,,0.00,671.0,WeatherDisplay:10.37,2013-08-24 15:29:00,
2013-08-24 10:34:00,78.7,68.9,30.18,SSE,156,6.9,6.9,72,0.00,FEW,,0.00,682.0,WeatherDisplay:10.37,2013-08-24 15:34:00,
2013-08-24 10:39:00,79.2,69.4,30.18,SE,138,6.9,6.9,72,0.00,FEW,,0.00,694.0,WeatherDisplay:10.37,2013-08-24 15:39:00,
2013-08-24 10:44:00,79.6,69.8,30.18,SE,145,0.0,0.0,72,0.00,FEW,,0.00,701.0,WeatherDisplay:10.37,2013-08-24 15:44:00,
2013-08-24 10:49:00,80.1,69.8,30.18,SSE,149,6.9,6.9,71,0.00,FEW,,0.00,714.0,WeatherDisplay:10.37,2013-08-24 15:49:00,
2013-08-24 10:54:00,80.7,70.4,30.18,SSE,149,0.0,0.0,71,0.00,FEW,,0.00,721.0,WeatherDisplay:10.37,2013-08-24 15:54:00,
2013-08-24 10:59:00,81.1,70.4,30.18,SSE,149,0.0,0.0,70,0.00,FEW,,0.00,733.0,WeatherDisplay:10.37,2013-08-24 15:59:00,
2013-08-24 11:04:00,81.5,70.3,30.18,SSW,192,5.8,5.8,69,0.00,FEW,,0.00,735.0,WeatherDisplay:10.37,2013-08-24 16:04:00,
2013-08-24 11:09:00,82.0,71.2,30.19,SSW,194,1.2,0.0,70,0.00,FEW,,0.00,749.0,WeatherDisplay:10.37,2013-08-24 16:09:00,
2013-08-24 11:14:00,82.2,70.6,30.19,SSW,211,6.9,6.9,68,0.00,FEW,,0.00,747.0,WeatherDisplay:10.37,2013-08-24 16:14:00,
2013-08-24 11:19:00,82.6,71.0,30.19,South,181,0.0,0.0,68,0.00,FEW,,0.00,761.0,WeatherDisplay:10.37,2013-08-24 16:19:00,
2013-08-24 11:24:00,83.0,71.3,30.19,SSW,192,4.6,4.6,68,0.00,FEW,,0.00,775.0,WeatherDisplay:10.37,2013-08-24 16:24:00,
2013-08-24 11:29:00,83.4,71.3,30.19,South,190,7.0,7.0,67,0.00,FEW,,0.00,779.0,WeatherDisplay:10.37,2013-08-24 16:29:00,
2013-08-24 11:34:00,83.6,71.5,30.18,South,191,3.5,3.5,67,0.00,FEW,,0.00,789.0,WeatherDisplay:10.37,2013-08-24 16:34:00,
2013-08-24 11:39:00,83.9,71.3,30.18,SSW,213,8.1,8.1,66,0.00,FEW,,0.00,796.0,WeatherDisplay:10.37,2013-08-24 16:39:00,
2013-08-24 11:44:00,84.0,71.4,30.18,SSW,199,0.0,0.0,66,0.00,FEW,,0.00,803.0,WeatherDisplay:10.37,2013-08-24 16:44:00,
2013-08-24 11:49:00,84.6,72.0,30.18,SSW,199,0.0,0.0,66,0.00,FEW,,0.00,814.0,WeatherDisplay:10.37,2013-08-24 16:49:00,
2013-08-24 11:54:00,84.9,71.4,30.18,SSW,196,3.5,3.5,64,0.00,FEW,,0.00,817.0,WeatherDisplay:10.37,2013-08-24 16:54:00,
2013-08-24 11:59:00,85.0,71.9,30.18,South,169,5.8,5.8,65,0.00,FEW,,0.00,823.0,WeatherDisplay:10.37,2013-08-24 16:59:00,
2013-08-24 12:04:00,85.3,71.3,30.18,South,173,3.5,0.0,63,0.00,FEW,,0.00,824.0,WeatherDisplay:10.37,2013-08-24 17:04:00,
2013-08-24 12:09:00,85.6,72.0,30.18,SSW,198,9.2,9.2,64,0.00,FEW,,0.00,828.0,WeatherDisplay:10.37,2013-08-24 17:09:00,
2013-08-24 12:14:00,85.9,71.8,30.17,SSE,161,1.2,0.0,63,0.00,FEW,,0.00,830.0,WeatherDisplay:10.37,2013-08-24 17:14:00,
2013-08-24 12:19:00,86.2,71.6,30.17,SSE,161,5.8,5.8,62,0.00,FEW,,0.00,842.0,WeatherDisplay:10.37,2013-08-24 17:19:00,
2013-08-24 12:24:00,86.7,72.1,30.17,SSE,156,1.2,0.0,62,0.00,FEW,,0.00,831.0,WeatherDisplay:10.37,2013-08-24 17:24:00,
2013-08-24 12:29:00,87.1,72.0,30.17,SSE,167,5.8,5.8,61,0.00,FEW,,0.00,840.0,WeatherDisplay:10.37,2013-08-24 17:29:00,
2013-08-24 12:34:00,87.3,72.2,30.16,SSE,164,6.9,6.9,61,0.00,FEW,,0.00,854.0,WeatherDisplay:10.37,2013-08-24 17:34:00,
2013-08-24 12:39:00,87.6,72.5,30.16,South,169,6.9,6.9,61,0.00,FEW,,0.00,854.0,WeatherDisplay:10.37,2013-08-24 17:39:00,
2013-08-24 12:44:00,87.7,72.1,30.16,SSE,160,1.2,0.0,60,0.00,FEW,,0.00,849.0,WeatherDisplay:10.37,2013-08-24 17:44:00,
2013-08-24 12:49:00,87.6,72.0,30.16,ESE,123,2.3,2.3,60,0.00,FEW,,0.00,856.0,WeatherDisplay:10.37,2013-08-24 17:49:00,
2013-08-24 12:54:00,88.0,71.4,30.16,SSE,161,1.2,0.0,58,0.00,FEW,,0.00,856.0,WeatherDisplay:10.37,2013-08-24 17:54:00,
2013-08-24 12:59:00,88.4,72.2,30.16,SSE,161,0.0,0.0,59,0.00,FEW,,0.00,854.0,WeatherDisplay:10.37,2013-08-24 17:59:00,
2013-08-24 13:04:00,89.2,72.0,30.16,SSE,167,0.0,0.2,57,0.00,FEW,,0.00,858.0,WeatherDisplay:10.37,2013-08-24 18:04:00,
2013-08-24 13:09:00,89.7,71.9,30.16,SSE,150,0.0,0.0,56,0.00,FEW,,0.00,856.0,WeatherDisplay:10.37,2013-08-24 18:09:00,
2013-08-24 13:14:00,90.1,70.7,30.16,SSE,148,3.5,3.5,53,0.00,FEW,,0.00,851.0,WeatherDisplay:10.37,2013-08-24 18:14:00,
2013-08-24 13:19:00,90.3,71.9,30.16,SSW,204,9.2,9.2,55,0.00,FEW,,0.00,856.0,WeatherDisplay:10.37,2013-08-24 18:19:00,
2013-08-24 13:24:00,90.1,71.8,30.16,South,186,1.2,1.2,55,0.00,FEW,,0.00,853.0,WeatherDisplay:10.37,2013-08-24 18:24:00,
2013-08-24 13:29:00,90.3,72.5,30.15,South,186,1.2,0.0,56,0.00,FEW,,0.00,856.0,WeatherDisplay:10.37,2013-08-24 18:29:00,
2013-08-24 13:34:00,90.5,72.1,30.15,South,191,1.2,0.0,55,0.00,FEW,,0.00,868.0,WeatherDisplay:10.37,2013-08-24 18:34:00,
2013-08-24 13:39:00,90.4,72.0,30.15,South,190,0.0,0.0,55,0.00,FEW,,0.00,861.0,WeatherDisplay:10.37,2013-08-24 18:39:00,
2013-08-24 13:44:00,90.2,72.4,30.15,South,178,6.9,6.9,56,0.00,FEW,,0.00,842.0,WeatherDisplay:10.37,2013-08-24 18:44:00,
2013-08-24 13:49:00,90.0,72.7,30.15,South,180,0.0,0.0,57,0.00,FEW,,0.00,835.0,WeatherDisplay:10.37,2013-08-24 18:49:00,
2013-08-24 13:54:00,90.4,73.1,30.15,South,174,0.0,0.0,57,0.00,FEW,,0.00,846.0,WeatherDisplay:10.37,2013-08-24 18:54:00,
2013-08-24 13:59:00,90.7,72.3,30.15,SE,138,0.0,0.0,55,0.00,FEW,,0.00,835.0,WeatherDisplay:10.37,2013-08-24 18:59:00,
2013-08-24 14:04:00,90.8,72.4,30.14,SSE,164,6.0,6.0,55,0.00,FEW,,0.00,824.0,WeatherDisplay:10.37,2013-08-24 19:04:00,
2013-08-24 14:09:00,90.6,72.2,30.14,SSE,148,0.0,0.1,55,0.00,FEW,,0.00,821.0,WeatherDisplay:10.37,2013-08-24 19:09:00,
2013-08-24 14:14:00,90.6,72.2,30.14,South,173,10.4,10.4,55,0.00,FEW,,0.00,817.0,WeatherDisplay:10.37,2013-08-24 19:14:00,
2013-08-24 14:19:00,90.5,72.7,30.14,South,181,4.6,4.6,56,0.00,FEW,,0.00,807.0,WeatherDisplay:10.37,2013-08-24 19:19:00,
2013-08-24 14:24:00,90.9,72.5,30.14,SSE,157,1.2,0.0,55,0.00,FEW,,0.00,788.0,WeatherDisplay:10.37,2013-08-24 19:24:00,
2013-08-24 14:29:00,90.8,72.4,30.14,SE,146,10.4,10.4,55,0.00,FEW,,0.00,793.0,WeatherDisplay:10.37,2013-08-24 19:29:00,
2013-08-24 14:34:00,91.2,72.8,30.14,SSE,159,2.3,2.3,55,0.00,FEW,,0.00,786.0,WeatherDisplay:10.37,2013-08-24 19:34:00,
2013-08-24 14:39:00,92.0,73.0,30.14,SSE,156,0.0,0.0,54,0.00,FEW,,0.00,816.0,WeatherDisplay:10.37,2013-08-24 19:39:00,
2013-08-24 14:44:00,92.6,73.0,30.13,SSE,157,8.1,8.1,53,0.00,FEW,,0.00,761.0,WeatherDisplay:10.37,2013-08-24 19:44:00,
2013-08-24 14:49:00,92.6,72.4,30.13,SSE,153,1.2,1.2,52,0.00,FEW,,0.00,759.0,WeatherDisplay:10.37,2013-08-24 19:49:00,
2013-08-24 14:54:00,92.7,72.5,30.13,SSE,159,3.5,3.5,52,0.00,FEW,,0.00,744.0,WeatherDisplay:10.37,2013-08-24 19:54:00,
2013-08-24 14:59:00,92.7,72.5,30.13,SE,130,4.6,4.6,52,0.00,FEW,,0.00,726.0,WeatherDisplay:10.37,2013-08-24 19:59:00,
2013-08-24 15:04:00,92.5,72.3,30.13,SSE,162,3.5,3.5,52,0.00,FEW,,0.00,714.0,WeatherDisplay:10.37,2013-08-24 20:04:00,
2013-08-24 15:09:00,92.6,72.4,30.13,SSE,167,11.0,11.0,52,0.00,FEW,,0.00,710.0,WeatherDisplay:10.37,2013-08-24 20:09:00,
2013-08-24 15:14:00,92.4,72.2,30.13,SSE,165,1.2,0.0,52,0.00,FEW,,0.00,708.0,WeatherDisplay:10.37,2013-08-24 20:14:00,
2013-08-24 15:19:00,92.5,71.7,30.13,South,182,8.1,8.1,51,0.00,FEW,,0.00,696.0,WeatherDisplay:10.37,2013-08-24 20:19:00,
2013-08-24 15:24:00,92.2,72.0,30.13,South,188,10.4,10.4,52,0.00,FEW,,0.00,693.0,WeatherDisplay:10.37,2013-08-24 20:24:00,
2013-08-24 15:29:00,92.1,71.9,30.13,SSE,163,7.0,7.0,52,0.00,FEW,,0.00,675.0,WeatherDisplay:10.37,2013-08-24 20:29:00,
2013-08-24 15:34:00,92.2,72.6,30.12,SSE,163,0.0,0.0,53,0.00,FEW,,0.00,677.0,WeatherDisplay:10.37,2013-08-24 20:34:00,
2013-08-24 15:39:00,92.6,73.0,30.12,SSE,155,4.0,4.0,53,0.00,FEW,,0.00,673.0,WeatherDisplay:10.37,2013-08-24 20:39:00,
2013-08-24 15:44:00,92.5,72.9,30.12,South,183,1.2,1.2,53,0.00,FEW,,0.00,710.0,WeatherDisplay:10.37,2013-08-24 20:44:00,
2013-08-24 15:49:00,92.9,73.2,30.12,SSE,164,6.9,6.9,53,0.00,FEW,,0.00,714.0,WeatherDisplay:10.37,2013-08-24 20:49:00,
2013-08-24 15:54:00,93.0,73.3,30.12,SSE,160,0.0,0.0,53,0.00,FEW,,0.00,659.0,WeatherDisplay:10.37,2013-08-24 20:54:00,
2013-08-24 15:59:00,93.3,73.0,30.12,SSE,164,6.9,6.9,52,0.00,FEW,,0.00,661.0,WeatherDisplay:10.37,2013-08-24 20:59:00,
2013-08-24 16:04:00,93.5,73.8,30.11,SE,141,0.0,0.1,53,0.00,FEW,,0.00,638.0,WeatherDisplay:10.37,2013-08-24 21:04:00,
2013-08-24 16:10:00,93.7,73.4,30.11,SSE,161,5.0,5.0,52,0.00,FEW,,0.00,615.0,WeatherDisplay:10.37,2013-08-24 21:10:00,
2013-08-24 16:15:00,93.6,73.3,30.11,SSE,166,6.9,6.9,52,0.00,FEW,,0.00,606.0,WeatherDisplay:10.37,2013-08-24 21:15:00,
2013-08-24 16:20:00,93.3,73.0,30.11,SSE,165,0.0,0.1,52,0.00,SCT,,0.00,571.0,WeatherDisplay:10.37,2013-08-24 21:20:00,
2013-08-24 16:25:00,92.9,73.2,30.11,SSE,149,3.0,3.0,53,0.00,BKN,,0.00,137.0,WeatherDisplay:10.37,2013-08-24 21:25:00,
2013-08-24 16:30:00,92.7,73.1,30.11,SSE,152,1.2,0.0,53,0.00,SCT,,0.00,501.0,WeatherDisplay:10.37,2013-08-24 21:30:00,
2013-08-24 16:35:00,92.6,72.4,30.11,SSE,157,0.0,1.7,52,0.00,BKN,,0.00,134.0,WeatherDisplay:10.37,2013-08-24 21:35:00,
2013-08-24 16:40:00,92.3,72.7,30.11,SSE,152,4.6,4.6,53,0.00,BKN,,0.00,482.0,WeatherDisplay:10.37,2013-08-24 21:40:00,
2013-08-24 16:45:00,92.0,72.4,30.11,South,169,11.5,11.5,53,0.00,SCT,,0.00,469.0,WeatherDisplay:10.37,2013-08-24 21:45:00,
2013-08-24 16:50:00,91.7,72.1,30.11,SSE,164,9.2,9.2,53,0.00,SCT,,0.00,450.0,WeatherDisplay:10.37,2013-08-24 21:50:00,
2013-08-24 16:55:00,91.5,72.5,30.11,SSE,160,10.4,10.4,54,0.00,SCT,,0.00,373.0,WeatherDisplay:10.37,2013-08-24 21:55:00,
2013-08-24 17:00:00,91.6,72.6,30.11,SSE,153,4.6,4.6,54,0.00,SCT,,0.00,420.0,WeatherDisplay:10.37,2013-08-24 22:00:00,
2013-08-24 17:05:00,91.5,72.5,30.11,South,170,3.5,3.5,54,0.00,SCT,,0.00,388.0,WeatherDisplay:10.37,2013-08-24 22:05:00,
2013-08-24 17:10:00,91.4,73.0,30.11,SSE,147,0.0,0.0,55,0.00,SCT,,0.00,383.0,WeatherDisplay:10.37,2013-08-24 22:10:00,
2013-08-24 17:15:00,91.5,73.1,30.11,SSE,156,4.6,4.6,55,0.00,SCT,,0.00,364.0,WeatherDisplay:10.37,2013-08-24 22:15:00,
2013-08-24 17:20:00,91.6,73.1,30.10,SSE,155,1.2,0.0,55,0.00,SCT,,0.00,348.0,WeatherDisplay:10.37,2013-08-24 22:20:00,
2013-08-24 17:25:00,91.6,73.1,30.10,SSE,148,0.0,0.0,55,0.00,SCT,,0.00,336.0,WeatherDisplay:10.37,2013-08-24 22:25:00,
2013-08-24 17:30:00,91.4,73.0,30.10,SSE,165,11.5,11.5,55,0.00,SCT,,0.00,320.0,WeatherDisplay:10.37,2013-08-24 22:30:00,
2013-08-24 17:35:00,91.2,72.8,30.10,SSE,158,1.2,1.2,55,0.00,SCT,,0.00,306.0,WeatherDisplay:10.37,2013-08-24 22:35:00,
2013-08-24 17:40:00,91.2,73.3,30.10,SSE,158,1.2,0.0,56,0.00,SCT,,0.00,283.0,WeatherDisplay:10.37,2013-08-24 22:40:00,
2013-08-24 17:45:00,91.0,72.6,30.10,SSE,159,6.9,6.9,55,0.00,SCT,,0.00,269.0,WeatherDisplay:10.37,2013-08-24 22:45:00,
2013-08-24 17:50:00,90.5,73.2,30.10,SSE,156,3.5,3.5,57,0.00,SCT,,0.00,214.0,WeatherDisplay:10.37,2013-08-24 22:50:00,
2013-08-24 17:55:00,90.1,72.3,30.10,SSE,168,1.2,0.0,56,0.00,BKN,,0.00,223.0,WeatherDisplay:10.37,2013-08-24 22:55:00,
2013-08-24 18:00:00,89.9,72.6,30.10,SSE,155,0.0,0.3,57,0.00,BKN,,0.00,199.0,WeatherDisplay:10.37,2013-08-24 23:00:00,
2013-08-24 18:05:00,89.7,72.4,30.10,SSE,162,1.2,0.0,57,0.00,BKN,,0.00,179.0,WeatherDisplay:10.37,2013-08-24 23:05:00,
2013-08-24 18:10:00,89.4,72.7,30.10,SSE,160,0.0,0.0,58,0.00,BKN,,0.00,153.0,WeatherDisplay:10.37,2013-08-24 23:10:00,
2013-08-24 18:15:00,89.1,72.9,30.10,SSE,153,0.0,0.0,59,0.00,BKN,,0.00,148.0,WeatherDisplay:10.37,2013-08-24 23:15:00,
2013-08-24 18:20:00,88.8,73.1,30.10,SSE,164,5.8,5.8,60,0.00,BKN,,0.00,134.0,WeatherDisplay:10.37,2013-08-24 23:20:00,
2013-08-24 18:25:00,88.5,72.8,30.10,SSE,153,0.0,0.0,60,0.00,BKN,,0.00,102.0,WeatherDisplay:10.37,2013-08-24 23:25:00,
2013-08-24 18:30:00,88.3,72.7,30.10,SSE,159,4.6,4.6,60,0.00,BKN,,0.00,93.0,WeatherDisplay:10.37,2013-08-24 23:30:00,
2013-08-24 18:35:00,87.9,72.3,30.10,SSE,167,6.9,6.9,60,0.00,BKN,,0.00,42.0,WeatherDisplay:10.37,2013-08-24 23:35:00,
2013-08-24 18:40:00,87.5,72.4,30.10,SSE,165,0.0,0.0,61,0.00,BKN,,0.00,28.0,WeatherDisplay:10.37,2013-08-24 23:40:00,
2013-08-24 18:45:00,87.2,72.6,30.10,SSE,166,0.0,0.0,62,0.00,BKN,,0.00,25.0,WeatherDisplay:10.37,2013-08-24 23:45:00,
2013-08-24 18:50:00,86.9,72.3,30.10,SSE,165,0.0,0.0,62,0.00,BKN,,0.00,53.0,WeatherDisplay:10.37,2013-08-24 23:50:00,
2013-08-24 18:55:00,86.5,72.4,30.10,SSE,165,0.0,0.0,63,0.00,BKN,,0.00,44.0,WeatherDisplay:10.37,2013-08-24 23:55:00,
2013-08-24 19:00:00,86.1,72.5,30.10,SSE,164,0.0,0.0,64,0.00,BKN,,0.00,49.0,WeatherDisplay:10.37,2013-08-25 00:00:00,
2013-08-24 19:05:00,85.7,72.1,30.10,SSE,164,0.0,0.0,64,0.00,BKN,,0.00,46.0,WeatherDisplay:10.37,2013-08-25 00:05:00,
2013-08-24 19:10:00,85.5,72.4,30.10,SSE,164,0.0,0.0,65,0.00,BKN,,0.00,32.0,WeatherDisplay:10.37,2013-08-25 00:10:00,
2013-08-24 19:15:00,85.3,72.2,30.11,SSE,164,0.0,0.0,65,0.00,BKN,,0.00,28.0,WeatherDisplay:10.37,2013-08-25 00:15:00,
2013-08-24 19:20:00,85.2,72.1,30.10,SSE,164,0.0,0.0,65,0.00,BKN,,0.00,23.0,WeatherDisplay:10.37,2013-08-25 00:20:00,
2013-08-24 19:25:00,85.0,72.4,30.10,SSE,164,0.0,0.0,66,0.00,BKN,,0.00,18.0,WeatherDisplay:10.37,2013-08-25 00:25:00,
2013-08-24 19:30:00,84.8,72.2,30.11,SSE,164,0.0,0.0,66,0.00,BKN,,0.00,12.0,WeatherDisplay:10.37,2013-08-25 00:30:00,
2013-08-24 19:35:00,84.6,72.0,30.11,SSE,164,0.0,0.0,66,0.00,BKN,,0.00,7.0,WeatherDisplay:10.37,2013-08-25 00:35:00,
2013-08-24 19:40:00,84.3,72.1,30.11,SSE,164,0.0,0.0,67,0.00,BKN,,0.00,5.0,WeatherDisplay:10.37,2013-08-25 00:40:00,
2013-08-24 19:45:00,84.0,72.3,30.11,SSE,164,0.0,0.0,68,0.00,OVC,,0.00,0.0,WeatherDisplay:10.37,2013-08-25 00:45:00,
2013-08-24 19:50:00,83.7,72.0,30.11,SSE,164,0.0,0.0,68,0.00,CLR,,0.00,0.0,WeatherDisplay:10.37,2013-08-25 00:50:00,
2013-08-24 19:55:00,83.4,72.2,30.11,SSE,164,0.0,0.0,69,0.00,CLR,,0.00,0.0,WeatherDisplay:10.37,2013-08-25 00:55:00,
2013-08-24 20:00:00,83.2,72.0,30.11,SSE,164,0.0,0.0,69,0.00,CLR,,0.00,0.0,WeatherDisplay:10.37,2013-08-25 01:00:00,
2013-08-24 20:05:00,82.9,71.7,30.11,SSE,164,0.0,0.0,69,0.00,CLR,,0.00,0.0,WeatherDisplay:10.37,2013-08-25 01:05:00,
2013-08-24 20:10:00,82.7,71.5,30.11,SSE,164,0.0,0.0,69,0.00,CLR,,0.00,0.0,WeatherDisplay:10.37,2013-08-25 01:10:00,
2013-08-24 20:15:00,82.3,71.5,30.12,SSE,164,0.0,0.0,70,0.00,CLR,,0.00,0.0,WeatherDisplay:10.37,2013-08-25 01:15:00,
2013-08-24 20:20:00,82.0,71.2,30.12,SSE,164,0.0,0.0,70,0.00,CLR,,0.00,0.0,WeatherDisplay:10.37,2013-08-25 01:20:00,
2013-08-24 20:25:00,81.6,71.3,30.12,SSE,164,0.0,0.0,71,0.00,CLR,,0.00,0.0,WeatherDisplay:10.37,2013-08-25 01:25:00,
2013-08-24 20:30:00,81.3,71.0,30.12,SSE,164,0.0,0.0,71,0.00,CLR,,0.00,0.0,WeatherDisplay:10.37,2013-08-25 01:30:00,
2013-08-24 20:35:00,81.0,71.1,30.12,SSE,164,0.0,0.0,72,0.00,CLR,,0.00,0.0,WeatherDisplay:10.37,2013-08-25 01:35:00,
2013-08-24 20:40:00,80.7,70.8,30.12,SSE,164,0.0,0.0,72,0.00,CLR,,0.00,0.0,WeatherDisplay:10.37,2013-08-25 01:40:00,
2013-08-24 20:45:00,80.3,70.9,30.12,SSE,164,0.0,0.0,73,0.00,CLR,,0.00,0.0,WeatherDisplay:10.37,2013-08-25 01:45:00,
2013-08-24 20:50:00,80.0,70.6,30.12,SSE,164,0.0,0.0,73,0.00,CLR,,0.00,0.0,WeatherDisplay:10.37,2013-08-25 01:50:00,
2013-08-24 20:55:00,79.7,70.7,30.12,SSE,164,0.0,0.0,74,0.00,CLR,,0.00,0.0,WeatherDisplay:10.37,2013-08-25 01:55:00,
2013-08-24 21:00:00,79.4,70.8,30.12,SSE,164,0.0,0.0,75,0.00,CLR,,0.00,0.0,WeatherDisplay:10.37,2013-08-25 02:00:00,
2013-08-24 21:05:00,79.1,70.5,30.12,SSE,164,0.0,0.0,75,0.00,CLR,,0.00,0.0,WeatherDisplay:10.37,2013-08-25 02:05:00,
2013-08-24 21:10:00,78.7,70.5,30.12,SSE,164,0.0,0.0,76,0.00,CLR,,0.00,0.0,WeatherDisplay:10.37,2013-08-25 02:10:00,
2013-08-24 21:15:00,78.7,70.5,30.12,SSE,164,0.0,0.0,76,0.00,CLR,,0.00,0.0,WeatherDisplay:10.37,2013-08-25 02:15:00,
2013-08-24 21:20:00,78.4,70.2,30.13,SSE,164,0.0,0.0,76,0.00,CLR,,0.00,0.0,WeatherDisplay:10.37,2013-08-25 02:20:00,
2013-08-24 21:25:00,78.1,70.3,30.13,SSE,164,0.0,0.0,77,0.00,CLR,,0.00,0.0,WeatherDisplay:10.37,2013-08-25 02:25:00,
2013-08-24 21:30:00,77.8,70.0,30.13,SSE,165,0.0,0.0,77,0.00,CLR,,0.00,0.0,WeatherDisplay:10.37,2013-08-25 02:30:00,
2013-08-24 21:35:00,77.6,70.2,30.13,SSE,164,0.0,0.0,78,0.00,CLR,,0.00,0.0,WeatherDisplay:10.37,2013-08-25 02:35:00,
2013-08-24 21:40:00,77.4,70.0,30.13,SSE,164,0.0,0.0,78,0.00,CLR,,0.00,0.0,WeatherDisplay:10.37,2013-08-25 02:40:00,
2013-08-24 21:45:00,77.2,70.2,30.13,SSE,166,0.0,0.0,79,0.00,CLR,,0.00,0.0,WeatherDisplay:10.37,2013-08-25 02:45:00,
2013-08-24 21:50:00,77.0,70.0,30.13,SSE,165,0.0,0.0,79,0.00,CLR,,0.00,0.0,WeatherDisplay:10.37,2013-08-25 02:50:00,
2013-08-24 21:56:00,76.8,70.2,30.13,SSE,165,0.0,0.0,80,0.00,CLR,,0.00,0.0,WeatherDisplay:10.37,2013-08-25 02:56:00,
2013-08-24 22:01:00,76.7,70.1,30.13,SSE,165,0.0,0.0,80,0.00,CLR,,0.00,0.0,WeatherDisplay:10.37,2013-08-25 03:01:00,
2013-08-24 22:06:00,76.6,70.0,30.13,SSE,165,0.0,0.0,80,0.00,CLR,,0.00,0.0,WeatherDisplay:10.37,2013-08-25 03:06:00,
2013-08-24 22:11:00,76.5,69.9,30.13,SSE,165,0.0,0.0,80,0.00,CLR,,0.00,0.0,WeatherDisplay:10.37,2013-08-25 03:11:00,
2013-08-24 22:16:00,76.4,70.1,30.14,SSE,163,0.0,0.0,81,0.00,CLR,,0.00,0.0,WeatherDisplay:10.37,2013-08-25 03:16:00,
2013-08-24 22:21:00,76.2,69.9,30.13,SSE,163,0.0,0.0,81,0.00,CLR,,0.00,0.0,WeatherDisplay:10.37,2013-08-25 03:21:00,
2013-08-24 22:26:00,76.1,69.8,30.13,SSE,163,0.0,0.0,81,0.00,CLR,,0.00,0.0,WeatherDisplay:10.37,2013-08-25 03:26:00,
2013-08-24 22:31:00,76.0,69.7,30.14,SSE,163,0.0,0.0,81,0.00,CLR,,0.00,0.0,WeatherDisplay:10.37,2013-08-25 03:31:00,
2013-08-24 22:36:00,75.8,69.6,30.13,SSE,163,0.0,0.0,81,0.00,CLR,,0.00,0.0,WeatherDisplay:10.37,2013-08-25 03:36:00,
2013-08-24 22:41:00,75.7,69.8,30.14,SSE,163,0.0,0.0,82,0.00,CLR,,0.00,0.0,WeatherDisplay:10.37,2013-08-25 03:41:00,
2013-08-24 22:46:00,75.6,69.7,30.13,SSE,163,0.0,0.0,82,0.00,CLR,,0.00,0.0,WeatherDisplay:10.37,2013-08-25 03:46:00,
2013-08-24 22:51:00,75.4,69.5,30.14,SSE,163,0.0,0.0,82,0.00,CLR,,0.00,0.0,WeatherDisplay:10.37,2013-08-25 03:51:00,
2013-08-24 22:56:00,75.2,69.3,30.14,SSE,163,0.0,0.0,82,0.00,CLR,,0.00,0.0,WeatherDisplay:10.37,2013-08-25 03:56:00,
2013-08-24 23:01:00,75.1,69.2,30.13,SSE,163,0.0,0.0,82,0.00,CLR,,0.00,0.0,WeatherDisplay:10.37,2013-08-25 04:01:00,
2013-08-24 23:02:00,75.1,69.2,30.13,SSE,163,0.0,0.0,82,0.00,CLR,,0.00,0.0,WeatherDisplay:10.37,2013-08-25 04:02:00,
2013-08-24 23:07:00,74.9,69.4,30.13,SSE,163,0.0,0.0,83,0.00,CLR,,0.00,0.0,WeatherDisplay:10.37,2013-08-25 04:07:00,
2013-08-24 23:12:00,74.8,69.3,30.13,SSE,163,0.0,0.0,83,0.00,CLR,,0.00,0.0,WeatherDisplay:10.37,2013-08-25 04:12:00,
2013-08-24 23:17:00,74.7,69.2,30.13,SSE,163,0.0,0.0,83,0.00,CLR,,0.00,0.0,WeatherDisplay:10.37,2013-08-25 04:17:00,
2013-08-24 23:22:00,74.5,69.0,30.13,SSE,163,1.0,1.0,83,0.00,CLR,,0.00,0.0,WeatherDisplay:10.37,2013-08-25 04:22:00,
2013-08-24 23:27:00,74.4,69.2,30.13,SSE,163,2.0,2.0,84,0.00,CLR,,0.00,0.0,WeatherDisplay:10.37,2013-08-25 04:27:00,
2013-08-24 23:32:00,74.2,69.1,30.13,SSE,163,5.8,5.8,84,0.00,CLR,,0.00,0.0,WeatherDisplay:10.37,2013-08-25 04:32:00,
2013-08-24 23:37:00,74.1,69.0,30.13,SSE,163,3.5,0.0,84,0.00,CLR,,0.00,0.0,WeatherDisplay:10.37,2013-08-25 04:37:00,
2013-08-24 23:42:00,74.0,68.9,30.13,SSE,157,0.0,0.1,84,0.00,CLR,,0.00,0.0,WeatherDisplay:10.37,2013-08-25 04:42:00,
2013-08-24 23:47:00,74.0,69.2,30.13,SSE,160,5.8,5.8,85,0.00,CLR,,0.00,0.0,WeatherDisplay:10.37,2013-08-25 04:47:00,
2013-08-24 23:52:00,73.9,69.1,30.13,SSE,165,3.5,3.5,85,0.00,CLR,,0.00,0.0,WeatherDisplay:10.37,2013-08-25 04:52:00,
2013-08-24 23:57:00,73.8,69.0,30.13,SSE,163,6.9,6.9,85,0.00,CLR,,0.00,0.0,WeatherDisplay:10.37,2013-08-25 04:57:00,